Flag for Canada Weather past 2 weeks in Sault Ste. Marie, Ontario, Canada

Now
52 °F

Passing clouds.


Feels Like: 49 °F
Forecast: 52 / 71 °F
Wind: 7 mph from East

Location: Sault Ste Marie

Current Time: May 29, 2015 at 2:47:42 AM

Latest Report: May 29, 2015 at 2:00 AM


Visibility: 15 mi

Pressure: 30.13 "Hg

Humidity: 94%

Dew point: 50 °F

Location of Sault Ste. MarieLocation

Historic Weather in Sault Ste. Marie — Graph

°F

Sault Ste. Marie temperature yesterday

Maximum temperature yesterday: 75 °F (at 4:00 PM)
Minimum temperature yesterday: 45 °F (at 4:00 AM)
Average temperature yesterday: 57 °F

Past Weeks' High & Low Weather Summary

 TemperatureHumidityPressure
High77 °F (May 24, 1:00 PM)100% (May 14, 2:00 AM)30.47 "Hg (May 14, 2:00 AM)
Low25 °F (May 20, 6:00 AM)21% (May 14, 5:00 PM)29.67 "Hg (May 27, 3:48 AM)
Average50 °F78%30.05 "Hg
* Reported May 14 1:00 AM — May 29 1:00 AM, Sault Ste. Marie, Weather by CustomWeather, © 2015

Note: Actual official high and low records may vary slightly from our data, if they occured in-between our weather recording intervals... More about our weather records

Advertising

Sault Ste. Marie weather history for previous 24 hours

 ConditionsComfort  
Time TempWeatherWind HumidityBarometerVisibility
1:00 AM
Fri, May 29
54 °FPassing clouds.7 mph88%30.14 "Hg15 mi
12:00 AM55 °FPassing clouds.6 mph82%30.15 "Hg15 mi
11:00 PM
Thu, May 28
55 °FPassing clouds.6 mph88%30.16 "Hg15 mi
10:00 PM59 °FPartly sunny.6 mph77%30.16 "Hg15 mi
9:00 PM63 °FBroken clouds.12 mph73%30.16 "Hg15 mi
8:00 PM68 °FBroken clouds.9 mph69%30.16 "Hg15 mi
7:00 PM72 °FBroken clouds.9 mph61%30.15 "Hg15 mi
6:00 PM75 °FPartly sunny.9 mph54%30.15 "Hg15 mi
5:00 PM75 °FPartly sunny.10 mph54%30.15 "Hg15 mi
4:00 PM75 °FScattered clouds.7 mph57%30.16 "Hg15 mi
3:00 PM73 °FPassing clouds.7 mph57%30.18 "Hg15 mi
2:00 PM72 °FPassing clouds.8 mph65%30.20 "Hg15 mi
1:00 PM63 °FFog.7 mph73%30.22 "Hg5 mi
12:00 PM57 °FFog.7 mph88%30.22 "Hg3 mi
11:00 AM59 °FFog.2 mph82%30.20 "Hg3 mi
10:48 AM55 °FFog.No wind88%30.20 "Hg3 mi
10:00 AM50 °FFog.8 mph94%30.22 "Hg1 mi
9:00 AM48 °FFog.8 mph94%30.21 "Hg1 mi
8:00 AM48 °FFog.3 mph100%30.19 "Hg1 mi
7:00 AM46 °FFog.No wind100%30.18 "Hg1 mi
6:54 AM48 °FFog.2 mph100%30.18 "Hg1 mi
6:00 AM48 °FFog.No wind100%30.16 "Hg2 mi
5:00 AM46 °FFog.No wind100%30.13 "Hg4 mi
4:53 AM46 °FFog.No wind100%30.13 "Hg4 mi
4:00 AM45 °FFog.2 mph100%30.12 "Hg4 mi
3:00 AM46 °FPassing clouds.2 mph100%30.09 "Hg12 mi
2:00 AM46 °FPartly cloudy.2 mph100%30.09 "Hg12 mi
Weather by CustomWeather, © 2015

See weather overviewHow to use our weather pages